Tracking 35275 objects as of 9-Sep-2026
HD Live streaming from Space Station
objects crossing your sky now

CZ-4 R/B


CZ-4 R/B is no longer on orbit


NORAD ID: 26482
Int'l Code: 2000-050B
Launch date: September 1, 2000
Source: People's Republic of China (PRC)
Launch site: Taiyaun Space Center, China (TSC)
Decay date: 2002-11-01

Note: This is a ROCKET BODY
Your satellite tracking list
Your tracking list is empty




NASA's NSSDC Master Catalog

Two Line Element Set (TLE):
1 26482U 00050B   02305.33019055  .17498761  25455-5  23533-3 0  9991
2 26482 097.3229 046.6522 0007844 270.1558 089.8903 16.49063177122435
Source of the keplerian elements: AFSPC